Regional Weather Roundup
Issued by NWS

Home | Current Version | Previous Version | Graphics & Text | Print | Product List | Glossary On
Versions: 1 2 3 4 5 6 7 8 9 10 11 12 13 14 15 16 17 18 19 20 21 22 23 24 25 26 27 28 29 30 31 32 33 34 35 36 37 38 39 40 41 42 43 44 45 46 47 48 49 50
000
ASUS44 KMEG 010110
RWRTN
TENNESSEE HOURLY STATE WEATHER ROUNDUP
NATIONAL WEATHER SERVICE MEMPHIS TN
800 PM CDT TUE MAY 31 2016

TNZ002-004-019-021-049-052-054-088>092-010200-
WEST TENNESSEE

CITY           SKY/WX    TMP DP  RH WIND       PRES   REMARKS
MEMPHIS INTL   MOCLDY    80  67  64 W3        29.90R
NWS MEMPHIS      N/A     78 N/A N/A MISG        N/A
JACKSON        CLEAR     77  67  71 S3        29.91R
DYERSBURG      CLEAR     79  66  65 CALM      29.90R
UNION CITY     MOCLDY    81  70  69 S3        29.89R
PARIS          CLEAR     75  66  73 CALM      29.91R
LEXINGTON      CLEAR     79  64  61 CALM      29.90R
$$

TNZ008-025-027-028-033-062-065-066-010200-
NORTH MIDDLE TENNESSEE

CITY           SKY/WX    TMP DP  RH WIND       PRES   REMARKS
NASHVILLE      PTCLDY    83  59  44 E5        29.91R
CLARKSVILLE    CLEAR     79  63  57 CALM      29.89S
SMYRNA         CLEAR     79  66  64 N6        29.91R
COOKEVILLE     CLEAR     77  68  73 NE3       29.94R
CROSSVILLE     CLEAR     75  64  68 N3        30.00R
$$

TNZ061-075-076-078-094-096-097-010200-
SOUTH MIDDLE TENNESSEE

CITY           SKY/WX    TMP DP  RH WIND       PRES   REMARKS
FAYETTEVILLE   PTCLDY    81  66  61 W3        29.93R
TULLAHOMA      CLEAR     79  66  65 CALM      29.94S
WINCHESTER     CLEAR     82  63  51 CALM      29.93R
MCMINNVILLE    CLEAR     79  64  61 CALM      29.94R
COLUMBIA       CLEAR     81  70  69 CALM      29.91R
SHELBYVILLE    CLEAR     82  64  54 CALM      29.92S
$$

TNZ017-018-042-046-047-010200-
NORTHEAST TENNESSEE

CITY           SKY/WX    TMP DP  RH WIND       PRES   REMARKS
TRI CITIES     MOCLDY    73  61  65 E3        29.98R
$$

TNZ012-013-036-069-073-074-010200-
CENTRAL EAST TENNESSEE

CITY           SKY/WX    TMP DP  RH WIND       PRES   REMARKS
KNOXVILLE      PTCLDY    79  63  57 N5        29.92S
OAK RIDGE      PTCLDY    80  63  55 CALM      29.95R
GATLINBURG     CLEAR     73  63  68 S3        29.94R
$$

TNZ083-085-099-010200-
SOUTHEAST TENNESSEE

CITY           SKY/WX    TMP DP  RH WIND       PRES   REMARKS
CHATTANOOGA    PTCLDY    84  59  42 N3        29.91R
$$

SKY/WX REPORTED AS FAIR MEANS FEW OR NO CLOUDS BELOW
12 THOUSAND FEET.





USA.gov is the U.S. government's official web portal to all federal, state and local government web resources and services.